Location: Amsterdam
(30.7274°N, 84.4357°W)
Time: 05:04:44
(UTC+00:00)

Explorer 11/Cluster Stage 4 - Pass Details

Date: 22 February 2026
Orbit: 463 x 1175 km, 28.8° (Epoch: 13 March)

Event Time Altitude Azimuth Distance (km) Brightness Sun altitude
Rises 16:27:13 0° 246° (WSW) 3,478 9.9 44.5°
Reaches altitude 10° 16:30:06 10° 241° (WSW) 2,412 9.2 44.8°
Maximum altitude 16:35:33 49° 168° (SSE) 907 9.3 45.4°
Drops below altitude 10° 16:39:58 10° 93° (E) 1,968 9.1 45.8°
Sets 16:42:08 0° 87° (E) 2,778 9.6 46.0°
